[Iaude] MPEC N42: 2024 NP [a=2.01,e=0.50,i=4.6,H=24.9]
    mpec at cfa.harvard.edu 
    mpec at cfa.harvard.edu
       
    Fri Jul  5 10:01:50 EDT 2024
    
    
  
M.P.E.C. 2024-N42                                  Issued 2024 July 5, 14:00 UT
     The Minor Planet Electronic Circulars contain information on unusual
         minor planets, routine data on comets and natural satellites,
         and occasional editorial announcements.  They are published
    on behalf of Division F of the International Astronomical Union by the
          Minor Planet Center, Smithsonian Astrophysical Observatory,
                          Cambridge, MA 02138, U.S.A.
			  
             Prepared using the Tamkin Foundation Computer Network
                              MPC at CFA.HARVARD.EDU
            URL https://www.minorplanetcenter.net/    ISSN 1523-6714
                                    2024 NP                                     
Observations:
     K24N00P* C2024 07 01.45650220 58 54.585+09 34 22.36         21.63wXEN042F51
     K24N00P  C2024 07 01.46758720 58 55.211+09 33 19.06         22.06wXEN042F51
     K24N00P  C2024 07 01.47867020 58 55.820+09 32 16.04         21.83wXEN042F51
     K24N00P KC2024 07 02.27423321 00 02.08 +08 17 36.5          21.3 GVEN042H21
     K24N00P KC2024 07 02.28145821 00 02.46 +08 16 57.0          21.6 GVEN042H21
     K24N00P KC2024 07 02.28463621 00 02.63 +08 16 39.6          21.5 GVEN042H21
     K24N00P 3C2024 07 02.38414021 00 13.081+08 07 59.33         21.69GVEN042T14
     K24N00P 3C2024 07 02.38512121 00 13.139+08 07 54.00         21.64GVEN042T14
     K24N00P 3C2024 07 02.38611621 00 13.196+08 07 48.64         21.63GVEN042T14
     K24N00P 3C2024 07 05.39328421 03 27.457+03 56 32.79         21.50GVEN042T14
     K24N00P 3C2024 07 05.39426021 03 27.485+03 56 28.35         21.72GVEN042T14
     K24N00P 3C2024 07 05.39523821 03 27.518+03 56 23.85         21.79GVEN042T14
Observer details:
F51 Pan-STARRS 1, Haleakala.  Observers J. Herman, T. Lowe, P. Minguez, A.
    Schultz, I. Smith.  Measurers K. Chambers, T. de Boer, J. Fairlamb, H.
    Gao, M. Huber, C.-C. Lin, E. Magnier, Y. Ramanjooloo, R. Wainscoat, R.
    Weryk.  1.8-m Ritchey-Chretien + CCD.
H21 Astronomical Research Observatory, Westfield.  Observer R. Holmes.
    Measurers T. Linder, R. Holmes, L. Horn.  1.3-m f/4.0 astrograph + CCD.
T14 Canada-France-Hawaii Telescope, Maunakea.  Observers R. Wainscoat, A.
    Acohido, T. Burdullis, H. Januszewski, H. Flewelling.  Measurers R. Weryk,
    R. Wainscoat.  3.6-m f/4.1 reflector + CCD.
Orbital elements:
2024 NP                                                  Earth MOID = 0.0625 AU
Epoch 2024 Mar. 31.0 TT = JDT 2460400.5                 MPC                     
M 340.37285              (2000.0)            P               Q                  
n   0.34462549     Peri.  108.99221     -0.45889741     +0.88657459             
a   2.0148271      Node   133.54852     -0.84243406     -0.41332157             
e   0.5019397      Incl.    4.61353     -0.28234380     -0.20772763             
P   2.86           H   24.91          G   0.15           U   8                  
Residuals in seconds of arc
240701 F51  0.0   0.1+    240702 H21  0.1+  0.0     240702 T14  0.0   0.0
240701 F51  0.0   0.1-    240702 H21  0.1+  0.1-    240705 T14  0.0   0.0
240701 F51  0.1-  0.0     240702 T14  0.0   0.1+    240705 T14  0.0   0.0
240702 H21  0.3+  0.1+    240702 T14  0.0   0.0     240705 T14  0.0   0.0
Ephemeris:
2024 NP                  a,e,i = 2.01, 0.50, 5                   q = 1.0035
Date    TT    R. A. (2000) Decl.     Delta      r    Elong.  Phase     V
2024 06 05    15 06 55.4 +71 46 56   0.07314 1.0095    83.9    91.9    22.5
...
2024 06 20    20 23 29.7 +35 13 54   0.07198 1.0448   111.6    64.7    21.6
...
2024 06 28    20 52 37.5 +15 39 53   0.09199 1.0750   127.4    48.7    21.7
...
2024 07 04    21 02 03.2 +05 48 16   0.1123  1.1020   137.4    38.7    21.9
2024 07 05    21 03 02.7 +04 27 33   0.1161  1.1068   138.9    37.1    22.0
2024 07 06    21 03 54.7 +03 11 03   0.1199  1.1118   140.4    35.6    22.0
...
2024 07 12    21 06 59.5 -03 13 47   0.1445  1.1430   149.1    27.2    22.2
...
2024 07 20    21 07 25.7 -09 21 02   0.1820  1.1886   159.8    17.2    22.5
...
2024 08 04    21 03 49.8 -16 17 32   0.2686  1.2831   178.1     1.5    22.8
A. U. Tomatic                (C) Copyright 2024 MPC           M.P.E.C. 2024-N42
    
    
More information about the Iaude
mailing list